Location: Bastogne Gables
(35.1554°N, 78.9900°W)
Time: 03:19:33
(UTC+00:00)

NOSS 3-3 (A) - Pass Details

Date: 29 October 2020
Orbit: 826 x 1387 km, 63.4° (Epoch: 22 November)

Event Time Altitude Azimuth Distance (km) Brightness Sun altitude
Rises 23:22:17 0° 215° (SW) 3,364 7.5 -12.5°
Reaches altitude 10° 23:24:40 10° 218° (SW) 2,459 6.8 -13.0°
Maximum altitude 23:30:17 73° 303° (WNW) 939 4.1 -14.1°
Drops below altitude 10° 23:36:35 10° 28° (NNE) 2,735 6.0 -15.4°
Enters shadow 23:38:34 - 29° (NNE) 3,483 6.6 -15.8°
